Home   Weather   Chula Vista   Past weeks

Flag for USA Past Weather in Chula Vista, California, USA — Yesterday and Last 2 Weeks

Now
68 °F

Low clouds.


Feels Like: 68 °F
Forecast: 66 / 76 °F
Wind: 3 mph from West

Location: Brown Field Municipal Airport

Current Time: Jul 25, 2017 at 7:58:44 am

Latest Report: Jul 25, 2017 at 7:25 am


Visibility: 10 mi

Pressure: 29.97 "Hg

Humidity: 87%

Dew Point: 64 °F

Location of Chula VistaLocation

Past Weather in Chula Vista — Graph

°F

Chula Vista Temperature Yesterday

Maximum temperature yesterday: 76 °F (at 1:53 pm)
Minimum temperature yesterday: 67 °F (at 12:53 am)
Average temperature yesterday: 70 °F

High & Low Weather Summary for the Past Weeks

 TemperatureHumidityPressure
High84 °F (Jul 10, 1:53 pm)100% (Jul 10, 6:53 am)30.03 "Hg (Jul 10, 6:53 am)
Low63 °F (Jul 16, 3:53 am)51% (Jul 10, 1:53 pm)29.82 "Hg (Jul 16, 5:53 pm)
Average71 °F80%29.93 "Hg
* Reported Jul 10 5:53 am — Jul 25 5:53 am, Chula Vista. Weather by CustomWeather, © 2017

Note: Actual official high and low records may vary slightly from our data, if they occured in-between our weather recording intervals... More about our weather records

Advertising

Chula Vista Weather History for the Previous 24 Hours

Scroll right to see more
 ConditionsComfort  
Time TempWeatherWind HumidityBarometerVisibility
5:53 am
Tue, Jul 25
67 °FOvercast.5 mph90%29.94 "Hg10 mi
4:53 am67 °FOvercast.5 mph90%29.93 "Hg10 mi
3:53 am67 °FOvercast.3 mph90%29.93 "Hg10 mi
2:53 am67 °FPassing clouds.3 mph90%29.93 "Hg9 mi
1:53 am67 °FPassing clouds.3 mph90%29.94 "Hg10 mi
12:53 am67 °FClear.No wind90%29.94 "Hg10 mi
11:53 pm
Mon, Jul 24
67 °FClear.No wind90%29.94 "Hg10 mi
10:53 pm67 °FClear.3 mph87%29.93 "Hg10 mi
9:53 pm68 °FClear.No wind84%29.93 "Hg10 mi
8:53 pm67 °FClear.3 mph85%29.91 "Hg10 mi
7:53 pm68 °FClear.6 mph82%29.90 "Hg10 mi
6:53 pm70 °FSunny.5 mph79%29.88 "Hg10 mi
5:53 pm70 °FPassing clouds.8 mph79%29.87 "Hg10 mi
4:53 pm72 °FPassing clouds.9 mph73%29.87 "Hg10 mi
3:53 pm73 °FScattered clouds.12 mph74%29.87 "Hg10 mi
2:53 pm75 °FPassing clouds.10 mph69%29.87 "Hg10 mi
1:53 pm76 °FPassing clouds.7 mph69%29.89 "Hg10 mi
12:53 pm73 °FPassing clouds.6 mph74%29.90 "Hg10 mi
12:15 pm73 °FPassing clouds.8 mph74%29.93 "Hg10 mi
12:03 pm73 °FScattered clouds.7 mph74%29.93 "Hg10 mi
11:36 am72 °FPartly sunny.6 mph76%29.94 "Hg10 mi
11:18 am72 °FPartly sunny.7 mph76%29.94 "Hg10 mi
11:06 am72 °FScattered clouds.5 mph78%29.94 "Hg10 mi
9:53 am70 °FPartly sunny.6 mph84%29.94 "Hg8 mi
9:30 am69 °FPartly sunny.3 mph87%29.94 "Hg8 mi
8:53 am70 °FBroken clouds.3 mph84%29.93 "Hg10 mi
7:53 am67 °FPartly sunny.No wind93%29.92 "Hg8 mi
Weather by CustomWeather, © 2017

See weather overviewHow to use our weather pages